SKYSAT-C11

Last updated on Sat Feb 07 2026 00:02:32 GMT+0000 (Coordinated Universal Time)

1 42987U 17068A 26037.36947705 .00032459 00000+0 56917-3 0 9994 2 42987 97.4175 181.3700 0000730 73.4844 286.6488 15.50504689462923
UTC large
Height (km)
Speed (km/s)
/
Latitude / Longitude
Inclination (degrees)
Orbital Period (minutes)
Azimuth
Elevation
Range (km)
Doppler Factor

Next 0 passes for location: London (51.5072 / 0.1276)

Sorry there are no passes over London.